STARLINK-31902, 59666

Orbit data source: Space-Track

STARLINK-31902, 59666 is a payload satellite owned by SpaceX/Seattle (US) in LEO that was launched on Mon, 06 May 2024 UTC via an FALCON 9 launch vehicle from the Air Force Eastern Test Range (AFETR). Payload-class satellites include a variety of spacecraft equipped with specific instruments for various scientific and technological missions. These include communications satellites like Starlink; space stations such as the ISS; scientific satellites like the Hubble; Earth observation satellites from companies like Planet Labs, Umbra, and HawkEye 360; GPS; miniature CubeSats for education and research; and military/defense satellites.

Loading next visibility...
Identifier
59666, 2024-084N
Orbit
LEO
Country
Flag of USUS
Related business
Manufacturer
SpaceX/Seattle
Mission
Operational Commercial Communications
Bus & Motor
STARLINK V2M, Unknown motor
Mass
730 kg wet, ~700 kg dry
Launch date (UTC)
2024-05-06 (2 years ago)
Launch vehicle
FALCON 9
Launch site
Air Force Eastern Test Range (AFETR)
Object type
Payload
Rocket body
Debris
Shape & HBR
Box + 2 Pan, 17.7 m
Radar Cross Section
33.884 m², Large (>1 m²)

Expand to show TLE details & history
Last TLE update: 2 days ago

TLE from 2 days ago
0 STARLINK-31902
1 59666U 24084N   26171.30349778  .00001692  00000-0  70989-4 0  9993
2 59666  43.0016 182.5425 0001456 267.3065  92.7620 15.27578575120067
Epoch: 2026-06-20T07:17Z
TLE epoch observation values (Epoch: 2026-06-20T07:17:02.208Z)
Latitude
-0.00001°
Longitude
164.76324°
Altitude
482.877 km
Speed
7.626 km/s
True Right ascension
12h 10m 10s
True Declination
0° 00' 00"
Sunlit
Object was in daylight at epoch
Visualization orbit readout
Latitude
Unknown
Longitude
Unknown
Altitude
Unknown
Speed
Unknown
Apparent Right ascension
Unknown
Apparent Declination
Unknown
Sunlit
N/A
Visualization observer readout
Local Sidereal Time
21:39:07
Azimuth
Unknown
Elevation
Unknown
Doppler factor
Unknown
Orbital elements
Apogee altitude
485.998 km
Perigee altitude
483.999 km
Semi-major axis
6,863.135 km
Eccentricity
0.00015
Inclination
43.0016°
RAAN
182.5425°
Arg. of periapsis
267.3065°
True anomaly
92.77867°
Mean anomaly
92.762°
Eccentric anomaly
92.77033°
Mean motion
3.81733 °/min
Orbital period
94.31 mins
BSTAR
0.000070989
Loading maneuver chart data...
Computing Atmospheric mass density...
Loading historical data...
Loading historical data...
Loading historical data...
Loading historical data...
Loading historical data...
Loading historical data...
Loading historical data...

Documentation

Showing up to 5 results
|